{"data":{"norad_id":55272,"epoch":"2026-05-24T21:58:17.625792Z","epoch_age_seconds":72519,"freshness":"FRESH","line1":"1 55272U 23010D   26144.91548178 -.00002116  00000+0 -16956-3 0  9998","line2":"2 55272  69.9994 212.2719 0003560 270.9445  89.1306 14.98329978184200","mean_motion":14.98329978,"eccentricity":0.000356,"inclination_deg":69.9994,"raan_deg":212.2719,"arg_perigee_deg":270.9445,"mean_anomaly_deg":89.1306,"bstar":-0.00016956,"rev_number":18420,"period_min":96.107000536834,"perigee_km":569.58169028421,"apogee_km":574.530227671,"semimajor_km":6950.1929589776,"source":"CELESTRAK","updated_at":"2026-05-25T13:38:17.731040Z"}}